| time (UTC) | temp C | wind direction | speed KPH | gust KPH | rain 1hr cm | rain 24hr cm | rain mn cm | humidity % | barometer mb |
| 20260504003534 | 11 | 234 | 0.0 | 1.6 | 0.00 | 0.00 | 0.00 | 57 | 1015.7 |
| 20260504003032 | 11 | 212 | 0.0 | 1.6 | 0.00 | 0.00 | 0.00 | 57 | 1015.7 |
| 20260504002530 | 12 | 0.0 | 0.0 | 0.00 | 0.00 | 0.00 | 57 | 1015.8 | |
| 20260504002028 | 12 | 216 | 0.0 | 3.2 | 0.00 | 0.00 | 0.00 | 56 | 1015.7 |
| 20260504001526 | 12 | 220 | 0.0 | 3.2 | 0.00 | 0.00 | 0.00 | 56 | 1015.8 |
| 20260504001024 | 12 | 231 | 0.0 | 4.8 | 0.00 | 0.00 | 0.00 | 55 | 1015.8 |
| 20260504000523 | 12 | 0.0 | 0.0 | 0.00 | 0.00 | 0.00 | 55 | 1015.8 | |
| 20260504000020 | 12 | 0.0 | 0.0 | 0.00 | 0.00 | 0.00 | 55 | 1015.8 | |
| 20260503235519 | 12 | 0.0 | 0.0 | 0.00 | 0.00 | 0.00 | 55 | 1015.8 | |
| 20260503235017 | 12 | 216 | 0.0 | 3.2 | 0.00 | 0.00 | 0.00 | 54 | 1015.8 |
| 20260503234535 | 12 | 221 | 1.6 | 4.8 | 0.00 | 0.00 | 0.00 | 54 | 1015.8 |
| 20260503234033 | 12 | 233 | 0.0 | 3.2 | 0.00 | 0.00 | 0.00 | 54 | 1015.8 |
| 20260503233531 | 12 | 0.0 | 0.0 | 0.00 | 0.00 | 0.00 | 53 | 1015.8 | |
| 20260503233030 | 12 | 0.0 | 0.0 | 0.00 | 0.00 | 0.00 | 53 | 1015.7 | |
| 20260503232527 | 12 | 216 | 0.0 | 1.6 | 0.00 | 0.00 | 0.00 | 53 | 1015.7 |
| 20260503232027 | 12 | 197 | 0.0 | 3.2 | 0.00 | 0.00 | 0.00 | 53 | 1015.7 |
| 20260503231525 | 12 | 203 | 0.0 | 1.6 | 0.00 | 0.00 | 0.00 | 53 | 1015.7 |
| 20260503231022 | 12 | 191 | 1.6 | 4.8 | 0.00 | 0.00 | 0.00 | 53 | 1015.7 |
| 20260503230520 | 12 | 187 | 1.6 | 4.8 | 0.00 | 0.00 | 0.00 | 53 | 1015.7 |
| 20260503230019 | 12 | 196 | 1.6 | 3.2 | 0.00 | 0.00 | 0.00 | 52 | 1015.8 |
| 20260503225517 | 13 | 214 | 0.0 | 1.6 | 0.00 | 0.00 | 0.00 | 52 | 1015.8 |
| 20260503225035 | 13 | 193 | 1.6 | 4.8 | 0.00 | 0.00 | 0.00 | 52 | 1015.7 |
| 20260503224533 | 13 | 195 | 1.6 | 4.8 | 0.00 | 0.00 | 0.00 | 51 | 1015.8 |
| 20260503224033 | 13 | 207 | 1.6 | 3.2 | 0.00 | 0.00 | 0.00 | 51 | 1015.8 |
| 20260503223529 | 13 | 212 | 1.6 | 3.2 | 0.00 | 0.00 | 0.00 | 51 | 1015.7 |
| 20260503223027 | 13 | 230 | 0.0 | 1.6 | 0.00 | 0.00 | 0.00 | 50 | 1015.7 |
| 20260503222526 | 13 | 208 | 1.6 | 3.2 | 0.00 | 0.00 | 0.00 | 50 | 1015.7 |
| 20260503222024 | 13 | 200 | 1.6 | 4.8 | 0.00 | 0.00 | 0.00 | 50 | 1015.6 |
| 20260503221522 | 13 | 192 | 1.6 | 4.8 | 0.00 | 0.00 | 0.00 | 50 | 1015.6 |
| 20260503221020 | 13 | 184 | 3.2 | 6.4 | 0.00 | 0.00 | 0.00 | 50 | 1015.7 |
| 20260503220518 | 13 | 181 | 4.8 | 9.7 | 0.00 | 0.00 | 0.00 | 50 | 1015.6 |
| 20260503220016 | 13 | 185 | 4.8 | 9.7 | 0.00 | 0.00 | 0.00 | 50 | 1015.7 |
| 20260503215534 | 13 | 195 | 3.2 | 4.8 | 0.00 | 0.00 | 0.00 | 50 | 1015.6 |
| 20260503215033 | 13 | 186 | 3.2 | 6.4 | 0.00 | 0.00 | 0.00 | 49 | 1015.6 |
| 20260503214531 | 13 | 188 | 3.2 | 9.7 | 0.00 | 0.00 | 0.00 | 49 | 1015.7 |
| 20260503214049 | 14 | 183 | 128.7 | 4.8 | 0.00 | 0.00 | 0.00 | 48 | 1015.6 |
| 20260503214029 | 14 | 183 | 1.6 | 4.8 | 0.00 | 0.00 | 0.00 | 48 | 1015.6 |
| 20260503213527 | 14 | 0.0 | 0.0 | 0.00 | 0.00 | 0.00 | 48 | 1015.5 | |
| 20260503213025 | 14 | 0.0 | 0.0 | 0.00 | 0.00 | 0.00 | 47 | 1015.6 | |
| 20260503212523 | 14 | 0.0 | 0.0 | 0.00 | 0.00 | 0.00 | 47 | 1015.6 | |
| 20260503212022 | 15 | 0.0 | 0.0 | 0.00 | 0.00 | 0.00 | 47 | 1015.6 | |
| 20260503211520 | 15 | 0.0 | 0.0 | 0.00 | 0.00 | 0.00 | 47 | 1015.6 | |
| 20260503211050 | 15 | 0.0 | 0.0 | 0.00 | 0.00 | 0.00 | 47 | 1015.6 | |
| 20260503211018 | 15 | 0.0 | 0.0 | 0.00 | 0.00 | 0.00 | 47 | 1015.6 | |
| 20260503210516 | 15 | 0.0 | 0.0 | 0.00 | 0.00 | 0.00 | 47 | 1015.7 | |
| 20260503210034 | 15 | 0.0 | 0.0 | 0.00 | 0.00 | 0.00 | 46 | 1015.7 | |
| 20260503205532 | 15 | 0.0 | 0.0 | 0.00 | 0.00 | 0.00 | 46 | 1015.7 | |
| 20260503205030 | 15 | 0.0 | 0.0 | 0.00 | 0.00 | 0.00 | 46 | 1015.7 | |
| 20260503204528 | 15 | 0.0 | 0.0 | 0.00 | 0.00 | 0.00 | 45 | 1015.6 | |
| 20260503204027 | 15 | 0.0 | 0.0 | 0.00 | 0.00 | 0.00 | 45 | 1015.5 | |
| 20260503203525 | 16 | 0.0 | 0.0 | 0.00 | 0.00 | 0.00 | 44 | 1015.6 | |
| 20260503203023 | 16 | 0.0 | 0.0 | 0.00 | 0.00 | 0.00 | 44 | 1015.6 | |
| 20260503202521 | 16 | 0.0 | 0.0 | 0.00 | 0.00 | 0.00 | 44 | 1015.6 | |
| 20260503202019 | 16 | 0.0 | 0.0 | 0.00 | 0.00 | 0.00 | 43 | 1015.6 | |
| 20260503201517 | 16 | 0.0 | 0.0 | 0.00 | 0.00 | 0.00 | 43 | 1015.6 | |
| 20260503201034 | 16 | 0.0 | 0.0 | 0.00 | 0.00 | 0.00 | 42 | 1015.6 | |
| 20260503200533 | 16 | 0.0 | 0.0 | 0.00 | 0.00 | 0.00 | 42 | 1015.6 | |
| 20260503200031 | 17 | 0.0 | 0.0 | 0.00 | 0.00 | 0.00 | 42 | 1015.7 | |
| 20260503195528 | 17 | 0.0 | 0.0 | 0.00 | 0.00 | 0.00 | 41 | 1015.7 | |
| 20260503195026 | 17 | 0.0 | 0.0 | 0.00 | 0.00 | 0.00 | 41 | 1015.7 | |
| 20260503194525 | 17 | 207 | 0.0 | 1.6 | 0.00 | 0.00 | 0.00 | 41 | 1015.7 |
| 20260503194023 | 17 | 196 | 0.0 | 1.6 | 0.00 | 0.00 | 0.00 | 40 | 1015.7 |
| 20260503193521 | 17 | 196 | 1.6 | 1.6 | 0.00 | 0.00 | 0.00 | 40 | 1015.7 |
| 20260503193051 | 17 | 192 | 1.6 | 4.8 | 0.00 | 0.00 | 0.00 | 40 | 1015.7 |
| 20260503193019 | 17 | 192 | 1.6 | 4.8 | 0.00 | 0.00 | 0.00 | 40 | 1015.7 |
| 20260503192517 | 18 | 187 | 3.2 | 6.4 | 0.00 | 0.00 | 0.00 | 39 | 1015.7 |
| 20260503192035 | 18 | 179 | 3.2 | 4.8 | 0.00 | 0.00 | 0.00 | 39 | 1015.7 |
| 20260503191532 | 18 | 182 | 3.2 | 4.8 | 0.00 | 0.00 | 0.00 | 38 | 1015.6 |
| 20260503191030 | 18 | 183 | 3.2 | 4.8 | 0.00 | 0.00 | 0.00 | 38 | 1015.7 |
| 20260503190529 | 18 | 187 | 4.8 | 6.4 | 0.00 | 0.00 | 0.00 | 37 | 1015.6 |
| 20260503190027 | 19 | 185 | 4.8 | 6.4 | 0.00 | 0.00 | 0.00 | 37 | 1015.6 |
| 20260503185525 | 19 | 186 | 3.2 | 6.4 | 0.00 | 0.00 | 0.00 | 37 | 1015.6 |
| 20260503185024 | 20 | 184 | 3.2 | 6.4 | 0.00 | 0.00 | 0.00 | 36 | 1015.5 |
| 20260503184521 | 20 | 186 | 3.2 | 6.4 | 0.00 | 0.00 | 0.00 | 36 | 1015.5 |
| 20260503184019 | 20 | 182 | 3.2 | 4.8 | 0.00 | 0.00 | 0.00 | 35 | 1015.5 |
| 20260503183518 | 20 | 188 | 3.2 | 6.4 | 0.00 | 0.00 | 0.00 | 35 | 1015.5 |
| 20260503183035 | 21 | 183 | 4.8 | 6.4 | 0.00 | 0.00 | 0.00 | 34 | 1015.6 |
| 20260503182534 | 21 | 184 | 4.8 | 6.4 | 0.00 | 0.00 | 0.00 | 34 | 1015.6 |
| 20260503182031 | 21 | 186 | 4.8 | 4.8 | 0.00 | 0.00 | 0.00 | 33 | 1015.5 |
| 20260503181528 | 21 | 182 | 3.2 | 6.4 | 0.00 | 0.00 | 0.00 | 32 | 1015.3 |
| 20260503181027 | 22 | 184 | 3.2 | 6.4 | 0.00 | 0.00 | 0.00 | 32 | 1015.4 |
| 20260503180525 | 22 | 189 | 3.2 | 6.4 | 0.00 | 0.00 | 0.00 | 31 | 1015.4 |
| 20260503180024 | 22 | 182 | 3.2 | 11.3 | 0.00 | 0.00 | 0.00 | 31 | 1015.4 |
| 20260503175521 | 22 | 184 | 3.2 | 9.7 | 0.00 | 0.00 | 0.00 | 31 | 1015.3 |
| 20260503175019 | 22 | 187 | 3.2 | 4.8 | 0.00 | 0.00 | 0.00 | 30 | 1015.3 |
| 20260503174516 | 22 | 193 | 3.2 | 6.4 | 0.00 | 0.00 | 0.00 | 30 | 1015.2 |
| 20260503174034 | 22 | 187 | 3.2 | 6.4 | 0.00 | 0.00 | 0.00 | 30 | 1015.3 |
| 20260503173533 | 23 | 186 | 4.8 | 11.3 | 0.00 | 0.00 | 0.00 | 30 | 1015.2 |
| 20260503173031 | 23 | 183 | 3.2 | 11.3 | 0.00 | 0.00 | 0.00 | 29 | 1015.2 |
| 20260503172529 | 23 | 184 | 4.8 | 11.3 | 0.00 | 0.00 | 0.00 | 29 | 1015.3 |
| 20260503172219 | 23 | 192 | 4.8 | 6.4 | 0.00 | 0.00 | 0.00 | 28 | 1015.3 |
| 20260503172027 | 23 | 192 | 4.8 | 6.4 | 0.00 | 0.00 | 0.00 | 28 | 1015.3 |
| 20260503171525 | 23 | 192 | 3.2 | 9.7 | 0.00 | 0.00 | 0.00 | 28 | 1015.4 |
| 20260503171023 | 23 | 190 | 4.8 | 14.5 | 0.00 | 0.00 | 0.00 | 28 | 1015.3 |
| 20260503170521 | 23 | 193 | 4.8 | 11.3 | 0.00 | 0.00 | 0.00 | 27 | 1015.3 |
| 20260503150533 | 25 | 194 | 11.3 | 22.5 | 0.00 | 0.00 | 0.00 | 26 | 1015.9 |
| 20260503131018 | 26 | 198 | 9.7 | 22.5 | 0.00 | 0.00 | 0.00 | 27 | 1017.1 |
| 20260503130517 | 26 | 246 | 9.7 | 20.9 | 0.00 | 0.00 | 0.00 | 27 | 1017.1 |
| 20260503110530 | 25 | 219 | 9.7 | 22.5 | 0.00 | 0.00 | 0.00 | 27 | 1018.3 |
| 20260503081525 | 21 | 240 | 9.7 | 22.5 | 0.00 | 0.00 | 0.00 | 37 | 1019.7 |
| 20260503081024 | 21 | 196 | 12.9 | 27.4 | 0.00 | 0.00 | 0.00 | 37 | 1019.8 |
| 20260503080521 | 20 | 183 | 16.1 | 30.6 | 0.00 | 0.00 | 0.00 | 38 | 1019.9 |
| 20260503072527 | 18 | 211 | 6.4 | 17.7 | 0.00 | 0.00 | 0.00 | 45 | 1019.8 |
| 20260503072025 | 18 | 215 | 8.0 | 25.7 | 0.00 | 0.00 | 0.00 | 45 | 1019.9 |
| 20260503071523 | 18 | 243 | 8.0 | 17.7 | 0.00 | 0.00 | 0.00 | 45 | 1020.0 |
| 20260503071021 | 18 | 236 | 8.0 | 20.9 | 0.00 | 0.00 | 0.00 | 45 | 1020.0 |
| 20260503070519 | 17 | 247 | 9.7 | 24.1 | 0.00 | 0.00 | 0.00 | 45 | 1019.9 |
| 20260503055032 | 13 | 191 | 6.4 | 12.9 | 0.00 | 0.00 | 0.00 | 58 | 1019.8 |
| 20260503054530 | 13 | 209 | 4.8 | 14.5 | 0.00 | 0.00 | 0.00 | 59 | 1019.9 |
| 20260503054028 | 12 | 216 | 4.8 | 14.5 | 0.00 | 0.00 | 0.00 | 60 | 1020.0 |
| 20260503053526 | 12 | 235 | 3.2 | 9.7 | 0.00 | 0.00 | 0.00 | 61 | 1020.0 |
| 20260503053024 | 12 | 222 | 3.2 | 11.3 | 0.00 | 0.00 | 0.00 | 63 | 1020.0 |
| 20260503052522 | 12 | 205 | 3.2 | 9.7 | 0.00 | 0.00 | 0.00 | 63 | 1019.9 |
| 20260503052020 | 11 | 200 | 3.2 | 6.4 | 0.00 | 0.00 | 0.00 | 64 | 1019.9 |
| 20260503051519 | 11 | 188 | 3.2 | 9.7 | 0.00 | 0.00 | 0.00 | 65 | 1019.9 |
| 20260503051049 | 11 | 185 | 3.2 | 6.4 | 0.00 | 0.00 | 0.00 | 66 | 1019.9 |
| 20260503051016 | 11 | 185 | 3.2 | 6.4 | 0.00 | 0.00 | 0.00 | 66 | 1019.9 |
| 20260503050535 | 10 | 183 | 0.0 | 4.8 | 0.00 | 0.00 | 0.00 | 66 | 1019.9 |
| 20260503050033 | 10 | 200 | 0.0 | 3.2 | 0.00 | 0.00 | 0.00 | 66 | 1020.0 |
| 20260503045531 | 10 | 188 | 1.6 | 3.2 | 0.00 | 0.00 | 0.00 | 66 | 1020.0 |
| 20260503045029 | 10 | 191 | 1.6 | 4.8 | 0.00 | 0.00 | 0.00 | 67 | 1020.0 |
| 20260503044527 | 10 | 192 | 1.6 | 3.2 | 0.00 | 0.00 | 0.00 | 67 | 1020.0 |
| 20260503044048 | 9 | 181 | 160.9 | 3.2 | 0.00 | 0.00 | 0.00 | 68 | 1019.9 |
| 20260503044026 | 9 | 181 | 1.6 | 3.2 | 0.00 | 0.00 | 0.00 | 68 | 1019.9 |
| 20260503043523 | 9 | 0.0 | 0.0 | 0.00 | 0.00 | 0.00 | 67 | 1020.0 | |
| 20260503043022 | 9 | 0.0 | 0.0 | 0.00 | 0.00 | 0.00 | 67 | 1020.0 | |
| 20260503042520 | 8 | 0.0 | 0.0 | 0.00 | 0.00 | 0.00 | 67 | 1019.9 | |
| 20260503042049 | 8 | 0.0 | 0.0 | 0.00 | 0.00 | 0.00 | 68 | 1019.9 | |
| 20260503042018 | 8 | 0.0 | 0.0 | 0.00 | 0.00 | 0.00 | 68 | 1019.9 | |
| 20260503041516 | 8 | 0.0 | 0.0 | 0.00 | 0.00 | 0.00 | 68 | 1019.9 | |
| 20260503041034 | 8 | 0.0 | 0.0 | 0.00 | 0.00 | 0.00 | 68 | 1019.8 | |
| 20260503040532 | 8 | 192 | 0.0 | 1.6 | 0.00 | 0.00 | 0.00 | 68 | 1019.8 |
| 20260503040030 | 8 | 0.0 | 0.0 | 0.00 | 0.00 | 0.00 | 67 | 1019.9 | |
| 20260503035528 | 8 | 0.0 | 0.0 | 0.00 | 0.00 | 0.00 | 67 | 1019.8 | |
| 20260503035026 | 8 | 0.0 | 0.0 | 0.00 | 0.00 | 0.00 | 67 | 1019.8 | |
| 20260503034524 | 8 | 186 | 0.0 | 1.6 | 0.00 | 0.00 | 0.00 | 67 | 1019.8 |
| 20260503034022 | 8 | 0.0 | 0.0 | 0.00 | 0.00 | 0.00 | 67 | 1019.8 | |
| 20260503033520 | 8 | 0.0 | 0.0 | 0.00 | 0.00 | 0.00 | 67 | 1019.7 | |
| 20260503033019 | 8 | 0.0 | 0.0 | 0.00 | 0.00 | 0.00 | 67 | 1019.8 | |
| 20260503032517 | 8 | 0.0 | 0.0 | 0.00 | 0.00 | 0.00 | 67 | 1019.8 | |
| 20260503032035 | 8 | 0.0 | 0.0 | 0.00 | 0.00 | 0.00 | 67 | 1019.8 | |
| 20260503031533 | 8 | 0.0 | 0.0 | 0.00 | 0.00 | 0.00 | 67 | 1019.7 | |
| 20260503031031 | 8 | 0.0 | 0.0 | 0.00 | 0.00 | 0.00 | 67 | 1019.7 | |
| 20260503030529 | 8 | 0.0 | 0.0 | 0.00 | 0.00 | 0.00 | 67 | 1019.7 | |
| 20260503030027 | 8 | 0.0 | 0.0 | 0.00 | 0.00 | 0.00 | 67 | 1019.7 | |
| 20260503025525 | 8 | 0.0 | 0.0 | 0.00 | 0.00 | 0.00 | 66 | 1019.7 | |
| 20260503025024 | 8 | 0.0 | 0.0 | 0.00 | 0.00 | 0.00 | 66 | 1019.7 | |
| 20260503024521 | 8 | 0.0 | 0.0 | 0.00 | 0.00 | 0.00 | 66 | 1019.7 | |
| 20260503024050 | 8 | 199 | 0.0 | 3.2 | 0.00 | 0.00 | 0.00 | 66 | 1019.6 |
| 20260503024019 | 8 | 199 | 0.0 | 3.2 | 0.00 | 0.00 | 0.00 | 66 | 1019.6 |
| 20260503023518 | 8 | 0.0 | 0.0 | 0.00 | 0.00 | 0.00 | 66 | 1019.7 | |
| 20260503023036 | 8 | 0.0 | 0.0 | 0.00 | 0.00 | 0.00 | 66 | 1019.7 | |
| 20260503022533 | 8 | 0.0 | 0.0 | 0.00 | 0.00 | 0.00 | 66 | 1019.8 | |
| 20260503022031 | 8 | 0.0 | 0.0 | 0.00 | 0.00 | 0.00 | 66 | 1019.7 | |
| 20260503021529 | 8 | 0.0 | 0.0 | 0.00 | 0.00 | 0.00 | 66 | 1019.8 | |
| 20260503021028 | 8 | 0.0 | 0.0 | 0.00 | 0.00 | 0.00 | 66 | 1019.7 | |
| 20260503020526 | 8 | 0.0 | 0.0 | 0.00 | 0.00 | 0.00 | 66 | 1019.8 | |
| 20260503020025 | 9 | 0.0 | 0.0 | 0.00 | 0.00 | 0.00 | 66 | 1019.7 | |
| 20260503015522 | 9 | 0.0 | 0.0 | 0.00 | 0.00 | 0.00 | 66 | 1019.7 | |
| 20260503015020 | 9 | 0.0 | 0.0 | 0.00 | 0.00 | 0.00 | 66 | 1019.7 | |
| 20260503014518 | 9 | 0.0 | 0.0 | 0.00 | 0.00 | 0.00 | 66 | 1019.8 | |
| 20260503014022 | 9 | 0.0 | 0.0 | 0.00 | 0.00 | 0.00 | 66 | 1019.8 | |
| 20260503013535 | 9 | 0.0 | 0.0 | 0.00 | 0.00 | 0.00 | 66 | 1019.8 | |
| 20260503013044 | 9 | 0.0 | 0.0 | 0.00 | 0.00 | 0.00 | 65 | 1019.9 | |
| 20260503012518 | 9 | 0.0 | 0.0 | 0.00 | 0.00 | 0.00 | 65 | 1019.9 | |
| 20260503012050 | 9 | 0.0 | 0.0 | 0.00 | 0.00 | 0.00 | 65 | 1020.0 | |
| 20260503012016 | 9 | 0.0 | 0.0 | 0.00 | 0.00 | 0.00 | 65 | 1020.0 | |
| 20260503011534 | 9 | 0.0 | 0.0 | 0.00 | 0.00 | 0.00 | 65 | 1020.0 | |
| 20260503011032 | 9 | 0.0 | 0.0 | 0.00 | 0.00 | 0.00 | 65 | 1020.0 | |
| 20260503010531 | 10 | 0.0 | 0.0 | 0.00 | 0.00 | 0.00 | 65 | 1020.0 | |
| 20260503010028 | 10 | 0.0 | 0.0 | 0.00 | 0.00 | 0.00 | 65 | 1019.9 | |
| 20260503005527 | 10 | 0.0 | 0.0 | 0.00 | 0.00 | 0.00 | 65 | 1019.9 | |
| 20260503005025 | 10 | 0.0 | 0.0 | 0.00 | 0.00 | 0.00 | 65 | 1019.9 | |
| 20260503004523 | 10 | 0.0 | 0.0 | 0.00 | 0.00 | 0.00 | 65 | 1020.0 | |
| 20260503004021 | 10 | 0.0 | 0.0 | 0.00 | 0.00 | 0.00 | 65 | 1019.9 |